Alabaster, AL

7:52 PM CST on December 13, 2017 (GMT -0600)
Shelby County

Weather History for KEET - April, 2013

Change the Weather History Date:

Sunday, April 28, 2013

  Actual Average Record
Temperature  
Mean Temperature 66 °F 66 °F  
Max Temperature 71 °F 77 °F 88 °F (1975)
Min Temperature 60 °F 54 °F 33 °F (1967)
Degree Days  
Heating Degree Days 0 2  
Month to date heating degree days 111 126  
Since 1 July heating degree days 2382 2564  
Cooling Degree Days 1 3  
Month to date cooling degree days 59 52  
Year to date cooling degree days 68 69  
Growing Degree Days 16 (Base 50)    
Moisture  
Dew Point 63 °F    
Average Humidity 88    
Maximum Humidity 97    
Minimum Humidity 78    
Precipitation  
Precipitation 2.86 in 0.12 in 2.86 in (2013)
Month to date precipitation 6.42 3.64  
Year to date precipitation 25.29 19.20  
Snow  
Snow 0.00 in - - ()
Month to date snowfall 0.0  
Since 1 July snowfall 0.9  
Snow Depth 0.00 in    
Sea Level Pressure  
Sea Level Pressure 30.01 in    
Wind  
Wind Speed 5 mph (SSW)    
Max Wind Speed 22 mph    
Max Gust Speed 33 mph    
Visibility 3 miles    
Events Fog , Rain , Thunderstorm    
T = Trace of Precipitation, MM = Missing Value Source: NWS Daily Summary

Daily Weather History Graph

Daily Weather History Graph

Search for Another Location

Airport or City:

Trip Planner

Search our weather history database for the weather conditions in past years. The results will help you decide how hot, cold, wet, or windy it might be!

Date:

Astronomy

Apr. 28, 2013 Rise Set
Actual Time 6:02 AM CDT 7:27 PM CDT
Civil Twilight 5:35 AM CDT 7:53 PM CDT
Nautical Twilight 5:04 AM CDT 8:25 PM CDT
Astronomical Twilight 4:31 AM CDT 8:57 PM CDT
Moon 10:52 PM CDT (4/28) 8:23 AM CDT (4/28)
Length of Visible Light 14h 17m
Length of Day
13h 25m
Waning Gibbous, 88% of the Moon is Illuminated
Apr 28
Waning Gibbous
May 2
Last Quarter
May 9
New
May 17
First Quarter
May 24
Full

Hourly Weather History & Observations

Time (CDT) Temp. Dew Point Humidity Pressure Visibility Wind Dir Wind Speed Gust Speed Precip Events Conditions
12:53 AM 70.0 °F 62.1 °F 76% 30.06 in 6.0 mi South 6.9 mph - N/A   Haze
1:53 AM 68.0 °F 62.1 °F 81% 30.02 in 5.0 mi South 5.8 mph - N/A   Haze
2:53 AM 66.9 °F 63.0 °F 87% 30.01 in 5.0 mi South 5.8 mph - N/A   Mostly Cloudy
3:53 AM 66.9 °F 63.0 °F 87% 30.01 in 4.0 mi South 8.1 mph - N/A   Scattered Clouds
4:53 AM 66.0 °F 63.0 °F 90% 30.01 in 4.0 mi SSW 4.6 mph - 0.01 in   Overcast
5:15 AM 66.2 °F 62.6 °F 88% 30.03 in 4.0 mi Variable 3.5 mph - N/A Thunderstorm Mostly Cloudy
5:23 AM 66.2 °F 62.6 °F 88% 30.03 in 4.0 mi Variable 5.8 mph - N/A Thunderstorm Mostly Cloudy
5:28 AM 66.2 °F 62.6 °F 88% 30.03 in 4.0 mi SSW 5.8 mph - 0.00 in Rain , Thunderstorm Light Rain
5:38 AM 64.4 °F 62.6 °F 94% 30.03 in 4.0 mi SSW 4.6 mph - 0.00 in   Overcast
5:53 AM 64.9 °F 63.0 °F 93% 30.02 in 4.0 mi SW 4.6 mph - 0.00 in   Overcast
6:06 AM 64.4 °F 62.6 °F 94% 30.04 in 2.5 mi South 4.6 mph - N/A   Overcast
6:20 AM 64.4 °F 64.4 °F 100% 30.04 in 2.0 mi South 4.6 mph - N/A   Overcast
6:33 AM 66.2 °F 62.6 °F 88% 30.04 in 2.5 mi Variable 4.6 mph - N/A   Overcast
6:53 AM 66.0 °F 64.0 °F 93% 30.02 in 2.5 mi South 8.1 mph - N/A   Overcast
7:02 AM 66.2 °F 64.4 °F 94% 30.03 in 2.0 mi South 5.8 mph - N/A   Overcast
7:11 AM 66.2 °F 64.4 °F 94% 30.04 in 2.0 mi South 6.9 mph - N/A   Mostly Cloudy
8:40 AM 66.2 °F 64.4 °F 94% 30.05 in 3.0 mi South 9.2 mph - N/A   Mostly Cloudy
8:53 AM 68.0 °F 64.0 °F 87% 30.04 in 3.0 mi South 9.2 mph - N/A   Mostly Cloudy
9:32 AM 66.2 °F 62.6 °F 88% 30.05 in 4.0 mi SSW 8.1 mph - N/A   Mostly Cloudy
9:53 AM 68.0 °F 64.0 °F 87% 30.03 in 3.0 mi SSW 5.8 mph - N/A   Mostly Cloudy
10:04 AM 69.8 °F 64.4 °F 83% 30.03 in 3.0 mi South 8.1 mph - N/A   Haze
10:30 AM 68.0 °F 64.4 °F 88% 30.03 in 2.0 mi SSW 8.1 mph - 0.00 in Rain Light Rain
10:51 AM 68.0 °F 64.4 °F 88% 30.04 in 1.5 mi South 10.4 mph 16.1 mph 0.04 in Rain , Thunderstorm Light Thunderstorms and Rain
10:53 AM 68.0 °F 64.9 °F 90% 30.03 in 0.5 mi SSW 8.1 mph 16.1 mph 0.13 in Fog , Rain , Thunderstorm Heavy Thunderstorms and Rain
10:55 AM 66.2 °F 64.4 °F 94% 30.03 in 0.2 mi SSW 6.9 mph 16.1 mph 0.06 in Fog , Rain , Thunderstorm Heavy Thunderstorms and Rain
11:03 AM 66.2 °F 64.4 °F 94% 30.03 in 0.5 mi Calm Calm - 0.09 in Fog , Rain , Thunderstorm Thunderstorms and Rain
11:06 AM 66.2 °F 62.6 °F 88% 30.03 in 1.0 mi SW 3.5 mph - 0.09 in Rain , Thunderstorm Light Thunderstorms and Rain
11:14 AM 66.2 °F 64.4 °F 94% 30.03 in 0.8 mi Calm Calm - 0.13 in Rain , Thunderstorm Heavy Rain
11:22 AM 66.2 °F 64.4 °F 94% 30.03 in 2.0 mi SSW 4.6 mph - 0.13 in Rain , Thunderstorm Light Rain
11:43 AM 69.8 °F 66.2 °F 88% 30.02 in 2.0 mi WSW 4.6 mph - 0.13 in Rain Light Rain
11:53 AM 68.0 °F 66.0 °F 93% 30.01 in 1.8 mi Variable 4.6 mph - 0.13 in Rain Light Rain
12:06 PM 68.0 °F 66.2 °F 94% 30.02 in 2.0 mi SSW 8.1 mph - 0.02 in Rain Light Rain
12:19 PM 69.8 °F 66.2 °F 88% 30.01 in 2.5 mi Variable 4.6 mph - 0.02 in   Overcast
12:43 PM 69.8 °F 66.2 °F 88% 30.01 in 2.0 mi SW 6.9 mph - 0.03 in Rain Light Rain
12:53 PM 69.1 °F 66.0 °F 90% 29.99 in 3.0 mi SSW 4.6 mph - 0.03 in   Mostly Cloudy
1:00 PM 69.8 °F 66.2 °F 88% 30.00 in 2.5 mi SSW 4.6 mph - N/A   Mostly Cloudy
1:09 PM 69.8 °F 66.2 °F 88% 30.00 in 2.5 mi SW 3.5 mph - 0.00 in Rain Light Rain
1:29 PM 71.6 °F 66.2 °F 83% 29.99 in 3.0 mi SW 11.5 mph 18.4 mph 0.00 in   Overcast
1:53 PM 71.1 °F 64.9 °F 81% 29.97 in 3.0 mi Variable 5.8 mph - 0.00 in   Haze
2:27 PM 69.8 °F 64.4 °F 83% 29.99 in 4.0 mi SSW 5.8 mph - N/A   Haze
2:53 PM 70.0 °F 64.0 °F 81% 29.99 in 4.0 mi WSW 5.8 mph - N/A   Haze
3:16 PM 69.8 °F 64.4 °F 83% 30.00 in 1.8 mi West 3.5 mph - 0.00 in Rain Light Rain
3:24 PM 68.0 °F 64.4 °F 88% 29.99 in 0.2 mi WNW 9.2 mph - 0.15 in Fog , Rain , Thunderstorm Heavy Rain
3:34 PM 66.2 °F 64.4 °F 94% 29.98 in 0.2 mi Variable 4.6 mph - 0.23 in Fog , Rain , Thunderstorm Rain
3:45 PM 66.2 °F 64.4 °F 94% 29.99 in 0.5 mi Calm Calm - 0.31 in Fog , Rain , Thunderstorm Rain
3:50 PM 66.2 °F 66.2 °F 100% 29.99 in 0.5 mi South 9.2 mph - 0.34 in Fog , Rain , Thunderstorm Heavy Thunderstorms and Rain
3:53 PM 66.9 °F 64.9 °F 93% 29.97 in 0.8 mi SSW 8.1 mph - 0.35 in Rain , Thunderstorm Heavy Thunderstorms and Rain
4:02 PM 66.2 °F 62.6 °F 88% 30.01 in 0.2 mi South 13.8 mph 20.7 mph 0.28 in Rain , Thunderstorm Heavy Rain
4:16 PM 64.4 °F 60.8 °F 88% 30.02 in 0.2 mi SW 21.9 mph 33.4 mph 1.21 in Fog , Rain , Thunderstorm Heavy Thunderstorms and Rain
4:33 PM 62.6 °F 62.6 °F 100% 30.02 in 0.2 mi NW 8.1 mph - 1.74 in Fog , Rain , Thunderstorm Heavy Thunderstorms and Rain
4:37 PM 62.6 °F 60.8 °F 94% 30.02 in 0.2 mi WNW 4.6 mph - 1.85 in Fog , Rain Heavy Rain
4:53 PM 63.0 °F 61.0 °F 93% 30.01 in 0.2 mi Calm Calm - 2.00 in Fog , Rain Heavy Rain
4:59 PM 62.6 °F 60.8 °F 94% 30.03 in 0.8 mi Variable 3.5 mph - 0.02 in Rain Rain
5:15 PM 62.6 °F 60.8 °F 94% 30.02 in 0.5 mi Calm Calm - 0.11 in Fog , Rain Heavy Rain
5:34 PM 62.6 °F 60.8 °F 94% 30.02 in 1.8 mi South 5.8 mph - 0.16 in Rain Rain
5:38 PM 62.6 °F 60.8 °F 94% 30.02 in 3.0 mi South 6.9 mph - 0.16 in Rain Light Rain
5:53 PM 62.1 °F 60.1 °F 93% 30.00 in 3.0 mi South 5.8 mph - 0.17 in Rain Light Rain
6:10 PM 62.6 °F 60.8 °F 94% 30.01 in 2.0 mi SSW 4.6 mph - 0.01 in Rain Light Rain
6:20 PM 62.6 °F 60.8 °F 94% 30.01 in 4.0 mi South 5.8 mph - 0.02 in Rain Light Rain
6:53 PM 62.1 °F 59.0 °F 90% 29.98 in 4.0 mi South 8.1 mph - 0.03 in Rain Light Rain
7:53 PM 62.1 °F 60.1 °F 93% 29.95 in 8.0 mi NW 3.5 mph - 0.01 in   Scattered Clouds
8:53 PM 62.1 °F 60.1 °F 93% 29.94 in 6.0 mi Calm Calm - N/A   Overcast
9:45 PM 60.8 °F 59.0 °F 94% 29.98 in 6.0 mi NW 9.2 mph - N/A   Partly Cloudy
9:53 PM 61.0 °F 59.0 °F 93% 29.97 in 7.0 mi NW 10.4 mph - N/A   Clear
10:53 PM 60.1 °F 59.0 °F 96% 29.97 in 5.0 mi NW 4.6 mph - N/A   Clear
11:41 PM 60.8 °F 59.0 °F 94% 30.00 in 4.0 mi Calm Calm - N/A   Mostly Cloudy
11:53 PM 60.1 °F 59.0 °F 96% 30.00 in 4.0 mi Calm Calm - N/A   Mostly Cloudy